Zurück zum Katalog

SL-12 R/B(2)

AktivHEO
NORAD 23845·ROCKET BODY·🇷🇺 Russia

Gestartet Apr 8, 1996 von Baikonur Cosmodrome

Loading…

Nächste Überflüge (nächste 24 Stunden)

TLE

AktuellSource: Space-Track

Epoche: Sep 14, 2026, 21:58 UTC

1 23845U 96021D   26257.91576072 -.00000136  00000-0  00000-0 0  9990
2 23845   4.9870 221.5023 3968146 290.8023  42.4157  1.64338232182688

Verfolge SL-12 R/B(2) in Echtzeit mit AllMySat

Download on the App Store